AirNav   Air Wisconsin pilot careers
 
 624 users online  

UT44 Davis Hospital & Medical Center Heliport
Layton, Utah, USA

GOING TO LAYTON?


FAA INFORMATION EFFECTIVE 16 AUGUST 2018

Location

FAA Identifier: UT44
Lat/Long: 41-05-30.5900N / 111-59-45.3500W
41-05.509833N / 111-59.755833W
41.0918306 / -111.9959306
(estimated)
Elevation: 4300 ft. / 1311 m (estimated)
Variation: 15E (1985)
Time zone: UTC -6 (UTC -7 during Standard Time)
Zip code: 84041

Heliport Operations

Heliport use: Private use, MEDICAL USE.
Activation date: 03/1981
Control tower: no
ARTCC: SALT LAKE CITY CENTER
FSS: CEDAR CITY FLIGHT SERVICE STATION
Attendance: UNATNDD
Wind indicator: lighted
Segmented circle: no

Heliport Communications

WX ASOS at OGD (6 nm N): 125.55 (801-622-5600)
WX ASOS at SLC (18 nm S): PHONE 801-328-3567

Nearby radio navigation aids

VOR radial/distance  VOR name  Freq  Var
OGDr136/9.2OGDEN VORTAC115.7014E
TCHr341/14.5WASATCH VORTAC116.8016E

Heliport Services

Runway Information

Helipad H1

Dimensions: 75 x 75 ft. / 23 x 23 m
Surface: concrete
Runway edge lights: RY H1 MKD WITH 8 GREEN & 8 FLOOD LGTS.
Latitude: 41-05.509833N
Longitude: 111-59.755833W
Elevation: 4300.0 ft.
Traffic pattern: leftleft

Heliport Ownership and Management from official FAA records

Ownership: Privately-owned
Owner: DAVIS HOSP & MED CENTER
1600 WEST ANTELOPE DRIVE
LAYTON, UT 84041
Phone 801-807-1000
Manager: MIKE JENSEN
1600 WEST ANTELOPE DRIVE
LAYTON, UT 84041
Phone (801) 807-7006

Heliport Operational Statistics

Aircraft based on the field: 1
Helicopters: 1
    

Instrument Procedures

There are no published instrument procedures at UT44.

Some nearby airports with instrument procedures:

KHIF - Hill Air Force Base (2 nm NE)
KOGD - Ogden-Hinckley Airport (6 nm N)
KSLC - Salt Lake City International Airport (18 nm S)
KBMC - Brigham City Regional Airport (28 nm N)
U42 - South Valley Regional Airport (28 nm S)
 
Loc | Ops | Rwys | IFR | FBO | Links
Com | Nav | Svcs | Stats | Notes


 
Area around UT44 (Davis Hospital & Medical Center Heliport)
 
Road maps at: MapQuest Bing Google
 
Aerial photo
No photo
 
Sectional chart

 
Airport distance calculator
Flying to Davis Hospital & Medical Center Heliport? Find the distance to fly.

From to UT44

Sunrise and sunset
Times for 21-Aug-2018
 Local
(UTC-6)
 Zulu
(UTC)
Morning civil twilight06:1612:16
Sunrise06:4512:45
Sunset20:1802:18
Evening civil twilight20:4702:47

Current date and time
Zulu (UTC)  21-Aug-2018 10:57:49
Local (UTC-6)  21-Aug-2018 04:57:49
 
METAR
KHIF 
2nm NE 
210958Z AUTO 11009KT 10SM CLR 20/07 A3003 RMK AO2 SLP103 T01990073
KOGD 
7nm N 
211053Z AUTO 30004KT 10SM CLR 20/06 A3003 RMK AO2 SLP105 T02000061
KSLC 
19nm S 
211009Z 07004KT 10SM FEW130 BKN200 20/08 A2999
TAF
KHIF 
2nm NE 
211003Z 2110/2211 11009KT 9999 FEW130 QNH2997INS BECMG 2117/2118 22009KT 9999 FEW100 BKN150 QNH3005INS BECMG 2203/2204 11012G18KT 9999 FEW250 QNH3007INS TX28/2122Z TN17/2112Z
KOGD 
7nm N 
210545Z 2106/2206 VRB05KT P6SM SCT200 FM211800 31006KT P6SM SCT100 BKN130 FM220200 15009KT P6SM BKN130
KSLC 
19nm S 
210856Z 2109/2212 17005KT P6SM SCT180 FM211600 30008KT P6SM SCT100 BKN120 FM220300 17009KT P6SM SCT070 BKN100
NOTAMs
Click for the latest NOTAMs
NOTAMs are issued by the DoD/FAA and will open in a separate window not controlled by AirNav.

 

 
 

Would you like to see your business listed on this page?

 If your business provides an interesting product or service to pilots, flight crews, aircraft, or users of the Davis Hospital & Medical Center Heliport, you should consider listing it here.  To start the listing process, click on the button below
 
Add a business
 

Other Pages about Davis Hospital & Medical Center Heliport

Update a link
 
Copyright © AirNav, LLC. All rights reserved. Privacy Policy  Contact